Hourly Data Report for September 02, 2017

All times are specified in Local Standard Time (LST). Add 1 hour to adjust for Daylight Saving Time where and when it is observed.

NAPPAN AUTO
NOVA SCOTIA

45°45'34.400" N
64°14'29.200" W
19.80 m
8203702
71311
XNP

Download Data

Hourly Data (September 2017)
Hourly Data Report for September 2, 2017
Temp Definition
°C
Dew Point Temp Definition
°C
Rel Hum Definition
%
Wind Dir Definition
10's deg

Wind Spd Definition
km/h
Visibility Definition
km
Stn Press Definition
kPa
Hmdx Definition


Wind Chill Definition


Weather Definition


TIME
00:00 11.0 7.5 79 28 24   100.89     LegendNANA
01:00 10.5 7.3 81 27 22   100.95     LegendNANA
02:00 10.5 7.2 80 29 23   101.03     LegendNANA
03:00 9.6 6.4 80 29 20   101.07     LegendNANA
04:00 8.5 6.0 84 29 15   101.12     LegendNANA
05:00 8.4 5.8 83 27 15   101.20     LegendNANA
06:00 8.6 6.0 84 30 18   101.28     LegendNANA
07:00 9.6 5.9 78 29 20   101.33     LegendNANA
08:00 10.7 5.7 72 31 23   101.43     LegendNANA
09:00 11.3 5.4 67 32 21   101.49     LegendNANA
10:00 11.3 5.5 67 31 14   101.54     LegendNANA
11:00 11.9 5.4 64 29 14   101.56     LegendNANA
12:00 12.9 5.0 59 31 16   101.59     LegendNANA
13:00 12.8 6.1 63 30 15   101.64     LegendNANA
14:00 12.9 5.7 62 31 14   101.69     LegendNANA
15:00 14.0 6.4 60 31 11   101.74     LegendNANA
16:00 14.7 5.6 54 28 5   101.75     LegendNANA
17:00 15.1 6.1 55 35 7   101.77     LegendNANA
18:00 15.1 6.1 55 5 1   101.82     LegendNANA
19:00 12.4 7.5 72 15 3   101.90     LegendNANA
20:00 11.0 8.3 83 19 9   102.01     LegendNANA
21:00 10.1 8.1 87 18 13   102.05     LegendNANA
22:00 9.0 7.6 91 17 11   102.10     LegendNANA
23:00 8.9 7.3 90 17 11   102.10     LegendNANA

Notes on Data Quality.

Legend

  • E = Estimated
  • M = Missing
  • NA = Not Available
  • ‡ = Partner data that is not subject to review by the National Climate Archives
Date modified: